User: anonymous   Login
Location: Monroe
(41.9160°N, 83.3980°W)
Time: 12:41:05
(UTC-04:00)
Language:

deb Explorer IX - Orbit

View from above orbital plane
View from above orbital plane
View from above satellite
View from above satellite

Ground track
Ground track

The orbit data is extracted from the following two-line orbital elements,

1    85U 61004C   17201.84562175 +.00001823 +00000-0 +39496-3 0  9991
2    85 038.7796 029.5283 0411534 275.8675 079.5314 14.17993261780087
Epoch (UTC): 20 July 2017 20:17:41
Eccentricity: 0.0411534
inclination: 38.7796°
perigee height: 535 km
apogee height: 1129 km
right ascension of ascending node: 29.5283°
argument of perigee: 275.8675°
revolutions per day: 14.17993261
mean anomaly at epoch: 79.5314°
orbit number at epoch: 78008

The dashed part of the orbit path shows where the satellite is in the earth's shadow,  

DLR